Time,TemperatureF,DewpointF,PressureIn,WindDirection,WindDirectionDegrees,WindSpeedMPH,WindSpeedGustMPH,Humidity,HourlyPrecipIn,Conditions,Clouds,dailyrainin,SoftwareType,DateUTC
2013-07-12 05:00:00,62.9,53.0,30.00,East,82,5.0,5.0,69,0.00,,,0.00,weatherlink.com 1.10,2013-07-12 10:00:00,
2013-07-12 08:04:00,66.6,60.0,30.03,East,82,0.0,4.0,78,0.00,,,0.00,weatherlink.com 1.10,2013-07-12 13:04:00,
2013-07-12 08:28:00,70.8,58.0,30.03,East,82,2.0,3.0,65,0.00,,,0.00,weatherlink.com 1.10,2013-07-12 13:28:00,
2013-07-12 08:42:00,72.2,58.0,30.04,ENE,65,3.0,3.0,62,0.00,,,0.00,weatherlink.com 1.10,2013-07-12 13:42:00,
2013-07-12 08:57:00,73.0,58.0,30.03,NE,48,0.0,3.0,59,0.00,,,0.00,weatherlink.com 1.10,2013-07-12 13:57:00,
2013-07-12 09:13:00,74.0,59.0,30.03,NE,48,1.0,2.0,60,0.00,,,0.00,weatherlink.com 1.10,2013-07-12 14:13:00,
2013-07-12 10:52:00,76.9,57.0,30.03,NW,304,0.0,5.0,50,0.00,,,0.00,weatherlink.com 1.10,2013-07-12 15:52:00,
2013-07-12 10:57:00,77.8,56.0,30.02,ENE,77,5.0,5.0,47,0.00,,,0.00,weatherlink.com 1.10,2013-07-12 15:57:00,
2013-07-12 11:12:00,77.9,55.0,30.03,NE,47,3.0,7.0,45,0.00,,,0.00,weatherlink.com 1.10,2013-07-12 16:12:00,
2013-07-12 11:42:00,77.7,55.0,30.03,East,90,7.0,11.0,46,0.00,,,0.00,weatherlink.com 1.10,2013-07-12 16:42:00,
2013-07-12 11:57:00,77.9,54.0,30.02,ESE,103,2.0,10.0,44,0.00,,,0.00,weatherlink.com 1.10,2013-07-12 16:57:00,
2013-07-12 12:12:00,78.0,54.0,30.02,ENE,67,3.0,10.0,44,0.00,,,0.00,weatherlink.com 1.10,2013-07-12 17:12:00,
2013-07-12 12:27:00,78.0,54.0,30.02,East,90,3.0,11.0,44,0.00,,,0.00,weatherlink.com 1.10,2013-07-12 17:27:00,
2013-07-12 12:42:00,78.3,53.0,30.01,East,86,2.0,10.0,42,0.00,,,0.00,weatherlink.com 1.10,2013-07-12 17:42:00,
2013-07-12 12:57:00,78.8,54.0,30.01,East,96,5.0,11.0,43,0.00,,,0.00,weatherlink.com 1.10,2013-07-12 17:57:00,
2013-07-12 13:27:00,79.2,52.0,30.00,ENE,63,5.0,10.0,39,0.00,,,0.00,weatherlink.com 1.10,2013-07-12 18:27:00,
2013-07-12 13:42:00,80.1,54.0,30.00,NE,49,5.0,6.0,40,0.00,,,0.00,weatherlink.com 1.10,2013-07-12 18:42:00,
2013-07-12 14:12:00,79.7,55.0,29.99,ESE,122,5.0,10.0,43,0.00,,,0.00,weatherlink.com 1.10,2013-07-12 19:12:00,
2013-07-12 14:28:00,80.8,54.0,29.99,East,88,10.0,13.0,40,0.00,,,0.00,weatherlink.com 1.10,2013-07-12 19:28:00,
2013-07-12 14:42:00,80.3,54.0,29.98,NE,40,5.0,9.0,41,0.00,,,0.00,weatherlink.com 1.10,2013-07-12 19:42:00,
2013-07-12 14:57:00,81.6,54.0,29.98,NNE,27,3.0,7.0,39,0.00,,,0.00,weatherlink.com 1.10,2013-07-12 19:57:00,
2013-07-12 15:28:00,81.5,54.0,29.98,NE,44,2.0,9.0,39,0.00,,,0.00,weatherlink.com 1.10,2013-07-12 20:28:00,
2013-07-12 15:43:00,82.6,57.0,29.98,NNE,30,3.0,5.0,41,0.00,,,0.00,weatherlink.com 1.10,2013-07-12 20:43:00,
2013-07-12 15:58:00,81.6,54.0,29.97,East,96,1.0,9.0,39,0.00,,,0.00,weatherlink.com 1.10,2013-07-12 20:58:00,
2013-07-12 16:13:00,82.4,54.0,29.97,NE,56,2.0,6.0,38,0.00,,,0.00,weatherlink.com 1.10,2013-07-12 21:13:00,
2013-07-12 16:28:00,82.1,53.0,29.96,NE,48,2.0,6.0,37,0.00,,,0.00,weatherlink.com 1.10,2013-07-12 21:28:00,
2013-07-12 16:43:00,81.5,53.0,29.96,ESE,110,2.0,10.0,38,0.00,,,0.00,weatherlink.com 1.10,2013-07-12 21:43:00,
2013-07-12 16:58:00,81.4,53.0,29.96,East,95,6.0,10.0,37,0.00,,,0.00,weatherlink.com 1.10,2013-07-12 21:58:00,
2013-07-12 17:13:00,81.6,54.0,29.95,East,89,5.0,8.0,39,0.00,,,0.00,weatherlink.com 1.10,2013-07-12 22:13:00,
2013-07-12 17:28:00,81.2,55.0,29.95,ENE,74,5.0,11.0,40,0.00,,,0.00,weatherlink.com 1.10,2013-07-12 22:28:00,
2013-07-12 18:13:00,81.4,55.0,29.95,NE,55,7.0,7.0,40,0.00,,,0.00,weatherlink.com 1.10,2013-07-12 23:13:00,
2013-07-12 18:28:00,81.1,55.0,29.95,ENE,65,5.0,6.0,41,0.00,,,0.00,weatherlink.com 1.10,2013-07-12 23:28:00,
2013-07-12 18:43:00,80.7,56.0,29.95,ENE,61,5.0,7.0,43,0.00,,,0.00,weatherlink.com 1.10,2013-07-12 23:43:00,
2013-07-12 18:58:00,80.4,55.0,29.95,ENE,58,5.0,9.0,42,0.00,,,0.00,weatherlink.com 1.10,2013-07-12 23:58:00,
2013-07-12 19:13:00,80.2,56.0,29.95,ENE,68,5.0,7.0,44,0.00,,,0.00,weatherlink.com 1.10,2013-07-13 00:13:00,
2013-07-12 19:28:00,79.9,57.0,29.95,ENE,65,4.0,5.0,45,0.00,,,0.00,weatherlink.com 1.10,2013-07-13 00:28:00,
2013-07-12 20:59:00,74.4,58.0,29.96,East,90,7.0,7.0,56,0.00,,,0.00,weatherlink.com 1.10,2013-07-13 01:59:00,
2013-07-12 21:13:00,73.3,57.0,29.96,ESE,103,5.0,7.0,58,0.00,,,0.00,weatherlink.com 1.10,2013-07-13 02:13:00,
2013-07-12 21:43:00,73.0,56.0,29.97,ESE,106,8.0,8.0,56,0.00,,,0.00,weatherlink.com 1.10,2013-07-13 02:43:00,
2013-07-12 23:13:00,70.5,53.0,29.97,ESE,102,0.0,2.0,54,0.00,,,0.00,weatherlink.com 1.10,2013-07-13 04:13:00,
2013-07-12 23:28:00,70.8,53.0,29.97,ESE,102,1.0,3.0,53,0.00,,,0.00,weatherlink.com 1.10,2013-07-13 04:28:00,
2013-07-12 23:44:00,70.5,54.0,29.97,ESE,113,0.0,2.0,56,0.00,,,0.00,weatherlink.com 1.10,2013-07-13 04:44:00,
2013-07-12 23:59:00,69.6,53.0,29.97,ESE,113,0.0,2.0,56,0.00,,,0.00,weatherlink.com 1.10,2013-07-13 04:59:00,